Location: Milton
(43.5183°N, 79.8775°W)
Time: 10:00:34
(UTC+00:00)

COSMOS 2251 DEB - Pass Details

Date: 16 December 2023
Orbit: 708 x 767 km, 74.0° (Epoch: 04 March)

Event Time Altitude Azimuth Distance (km) Brightness Sun altitude
Exits shadow 11:23:34 19° 311° (NW) 1,752 ? -14.3°
Maximum altitude 11:26:35 35° 259° (WSW) 1,223 ? -13.8°
Drops below altitude 10° 11:31:17 10° 194° (SSW) 2,299 ? -13.0°
Sets 11:33:49 0° 186° (S) 3,223 ? -12.6°
